Location: OLV Amersfoort
(52.1552°N, 5.3872°E)
Time: 21:54:10
(UTC+02:00)

ISS - Visible Passes

Search period start: 25 July 2014 00:00
Search period end: 04 August 2014 00:00
Orbit: 411 x 420 km, 51.6° (Epoch: 25 July)

Date Brightness Start Highest point End Pass type
(mag) Time Alt. Az. Time Alt. Az. Time Alt. Az.
25 Jul -2.7 03:35:48 30° SSW 03:36:55 41° SSE 03:40:07 10° E visible
26 Jul -2.2 02:48:39 29° SE 02:48:39 29° SE 02:51:16 10° E visible
26 Jul -3.3 04:21:31 11° WSW 04:24:43 76° S 04:28:06 10° E visible
27 Jul -0.9 02:01:31 14° ESE 02:01:31 14° ESE 02:02:19 10° E visible
27 Jul -3.3 03:34:22 28° WSW 03:35:58 65° SSE 03:39:19 10° E visible
28 Jul -3.1 02:47:13 51° SSE 02:47:15 51° SSE 02:50:33 10° E visible
28 Jul -3.3 04:20:31 10° W 04:23:54 84° S 04:27:17 10° E visible
29 Jul -1.7 02:00:05 24° ESE 02:00:05 24° ESE 02:01:46 10° E visible
29 Jul -3.4 03:32:57 20° W 03:35:09 82° S 03:38:32 10° E visible
29 Jul -3.2 05:08:29 10° W 05:11:50 64° SSW 05:15:10 10° ESE visible
30 Jul -3.4 02:45:50 56° SW 02:46:25 74° S 02:49:47 10° E visible
30 Jul -3.3 04:19:45 10° W 04:23:07 75° S 04:26:29 10° ESE visible
31 Jul -2.4 01:58:46 38° E 01:58:46 38° E 02:01:03 10° E visible
31 Jul -3.4 03:31:38 15° W 03:34:24 82° S 03:37:46 10° E visible
31 Jul -2.8 05:07:46 10° W 05:10:58 40° SSW 05:14:09 10° SE visible
01 Aug -0.8 01:11:48 14° E 01:11:48 14° E 01:12:19 10° E visible
01 Aug -3.4 02:44:41 43° W 02:45:40 84° S 02:49:03 10° E visible
01 Aug -3.2 04:19:01 10° W 04:22:19 53° SSW 04:25:37 10° ESE visible
02 Aug -2.5 01:57:58 42° E 01:57:58 42° E 02:00:20 10° E visible
02 Aug -3.4 03:30:52 14° W 03:33:39 66° SSW 03:37:00 10° ESE visible
02 Aug -2.0 05:07:17 10° W 05:10:01 23° SSW 05:12:44 10° SSE visible
02 Aug -0.9 23:28:58 10° SSW 23:29:16 12° SSW 23:29:16 12° SSW visible
03 Aug -3.4 02:44:57 77° SSW 02:44:59 77° S 02:48:21 10° ESE visible
03 Aug -2.5 04:18:25 10° W 04:21:28 31° SSW 04:24:30 10° SE visible
03 Aug -1.9 22:40:51 10° SSW 22:43:19 19° SE 22:45:49 10° E visible
